BOX116 LZIB-EDDF

Flight info

Callsign BOX116
Flight time 1h 2m
Altitude 34000
Route TOVKA DCT SUBEN DCT AKINI T161 DEBHI SPESA5B
Aircraft B77L/H-SDE1E2E3FGHIJ2J3J4J5M1RWXY/LB1D1

Departure

Time 2026-05-04 18:21
Airport M. R. Štefánik Airport (LZIB)

Arrival

Time 2026-05-04 19:24
Airport Frankfurt Main Airport (EDDF)
Time Latitude Longitude Altitude Speed Heading
2026-05-04 17:54 48.17164 17.20447 435 ft 0 kts 314°
2026-05-04 18:11 48.17160 17.20454 435 ft 4 kts 314°
2026-05-04 18:11 48.17144 17.20478 428 ft 4 kts 312°
2026-05-04 18:11 48.17136 17.20493 423 ft 0 kts 294°
2026-05-04 18:16 48.17137 17.20492 423 ft 1 kts 298°
2026-05-04 18:16 48.17157 17.20500 421 ft 3 kts 43°
2026-05-04 18:17 48.17181 17.20536 428 ft 7 kts 44°
2026-05-04 18:17 48.17242 17.20531 428 ft 11 kts 323°
2026-05-04 18:17 48.17336 17.20387 421 ft 9 kts 315°
2026-05-04 18:18 48.17387 17.20324 423 ft 11 kts 330°
2026-05-04 18:18 48.17469 17.20309 425 ft 12 kts 13°
2026-05-04 18:18 48.17529 17.20368 422 ft 10 kts 41°
2026-05-04 18:18 48.17539 17.20441 426 ft 3 kts 123°
2026-05-04 18:19 48.17529 17.20460 420 ft 3 kts 128°
2026-05-04 18:19 48.17519 17.20478 423 ft 0 kts 132°
2026-05-04 18:20 48.17513 17.20486 423 ft 7 kts 133°
2026-05-04 18:20 48.17338 17.20760 422 ft 75 kts 134°
2026-05-04 18:21 48.16807 17.21584 421 ft 142 kts 134°
2026-05-04 18:21 48.15999 17.22821 571 ft 178 kts 135°
2026-05-04 18:21 48.15161 17.24080 1266 ft 176 kts 136°
2026-05-04 18:21 48.14324 17.25397 2038 ft 170 kts 139°
2026-05-04 18:22 48.13488 17.26699 2639 ft 181 kts 140°
2026-05-04 18:22 48.12542 17.28153 2878 ft 208 kts 139°
2026-05-04 18:22 48.11665 17.30055 3152 ft 239 kts 116°
2026-05-04 18:22 48.11359 17.32611 3753 ft 262 kts 91°
2026-05-04 18:23 48.11904 17.35304 4401 ft 283 kts 62°
2026-05-04 18:23 48.13270 17.37451 5226 ft 291 kts 29°
2026-05-04 18:23 48.15196 17.38186 6191 ft 287 kts 354°
2026-05-04 18:23 48.17053 17.37309 7072 ft 280 kts 325°
2026-05-04 18:24 48.18687 17.35738 7719 ft 286 kts 325°
2026-05-04 18:24 48.20418 17.34126 8499 ft 291 kts 326°
2026-05-04 18:24 48.22156 17.32539 9375 ft 293 kts 326°
2026-05-04 18:24 48.23837 17.30877 10104 ft 293 kts 315°
2026-05-04 18:25 48.25018 17.28373 10502 ft 304 kts 287°
2026-05-04 18:25 48.25319 17.25161 10692 ft 321 kts 266°
2026-05-04 18:25 48.25285 17.21694 10862 ft 346 kts 270°
2026-05-04 18:25 48.25462 17.17982 11305 ft 365 kts 273°
2026-05-04 18:26 48.25731 17.14142 12108 ft 373 kts 274°
2026-05-04 18:26 48.26018 17.10240 13138 ft 377 kts 274°
2026-05-04 18:26 48.26302 17.06298 14127 ft 381 kts 274°
2026-05-04 18:26 48.26577 17.02330 15008 ft 385 kts 274°
2026-05-04 18:27 48.26844 16.98295 15885 ft 390 kts 274°
2026-05-04 18:27 48.27106 16.94215 16730 ft 395 kts 273°
2026-05-04 18:27 48.27360 16.90143 17565 ft 400 kts 273°
2026-05-04 18:27 48.27617 16.85966 18367 ft 405 kts 273°
2026-05-04 18:28 48.27875 16.81728 19081 ft 409 kts 274°
2026-05-04 18:28 48.28136 16.77393 19823 ft 413 kts 274°
2026-05-04 18:28 48.28392 16.73119 20554 ft 417 kts 274°
2026-05-04 18:28 48.28651 16.68767 21274 ft 420 kts 274°
2026-05-04 18:29 48.28911 16.64370 21982 ft 425 kts 274°
2026-05-04 18:29 48.29173 16.59922 22662 ft 430 kts 274°
2026-05-04 18:29 48.29434 16.55435 23383 ft 433 kts 275°
2026-05-04 18:29 48.29697 16.50899 23910 ft 439 kts 275°
2026-05-04 18:30 48.30223 16.41727 25138 ft 444 kts 275°
2026-05-04 18:30 48.30487 16.37070 25655 ft 448 kts 275°
2026-05-04 18:30 48.30750 16.32396 26284 ft 450 kts 275°
2026-05-04 18:31 48.31010 16.27744 26771 ft 455 kts 275°
2026-05-04 18:31 48.31278 16.22919 27282 ft 459 kts 275°
2026-05-04 18:31 48.31543 16.18115 27813 ft 463 kts 275°
2026-05-04 18:31 48.31807 16.13285 27921 ft 467 kts 275°
2026-05-04 18:32 48.32067 16.08487 27929 ft 466 kts 275°
2026-05-04 18:32 48.32329 16.03619 28349 ft 469 kts 275°
2026-05-04 18:32 48.32590 15.98715 28896 ft 471 kts 275°
2026-05-04 18:32 48.32850 15.93804 29447 ft 472 kts 275°
2026-05-04 18:33 48.33108 15.88888 30070 ft 471 kts 275°
2026-05-04 18:33 48.33363 15.83987 30690 ft 468 kts 275°
2026-05-04 18:33 48.33615 15.79107 30918 ft 468 kts 275°
2026-05-04 18:34 48.34113 15.69336 31456 ft 469 kts 274°
2026-05-04 18:34 48.34358 15.64474 32152 ft 463 kts 274°
2026-05-04 18:34 48.34598 15.59668 32885 ft 457 kts 274°
2026-05-04 18:34 48.34831 15.54970 33560 ft 453 kts 274°
2026-05-04 18:35 48.35063 15.50242 33941 ft 454 kts 274°
2026-05-04 18:35 48.35524 15.40711 33907 ft 456 kts 274°
2026-05-04 18:36 48.35975 15.31251 33912 ft 451 kts 273°
2026-05-04 18:36 48.36415 15.21843 33914 ft 451 kts 273°
2026-05-04 18:37 48.36850 15.12406 33917 ft 452 kts 273°
2026-05-04 18:37 48.37272 15.03044 33916 ft 452 kts 273°
2026-05-04 18:38 48.37691 14.93598 33918 ft 453 kts 273°
2026-05-04 18:38 48.38103 14.84132 33912 ft 453 kts 272°
2026-05-04 18:39 48.38506 14.74655 33911 ft 454 kts 272°
2026-05-04 18:39 48.38904 14.65159 33906 ft 455 kts 272°
2026-05-04 18:40 48.39294 14.55656 33899 ft 455 kts 272°
2026-05-04 18:40 48.39677 14.46143 33896 ft 456 kts 272°
2026-05-04 18:41 48.40051 14.36650 33894 ft 456 kts 272°
2026-05-04 18:41 48.40419 14.27088 33891 ft 457 kts 272°
2026-05-04 18:42 48.40780 14.17527 33888 ft 458 kts 272°
2026-05-04 18:42 48.41133 14.07945 33893 ft 459 kts 271°
2026-05-04 18:43 48.41479 13.98348 33892 ft 459 kts 271°
2026-05-04 18:43 48.41815 13.88789 33892 ft 460 kts 271°
2026-05-04 18:44 48.42092 13.80738 33899 ft 460 kts 271°
2026-05-04 18:44 48.42414 13.71174 33902 ft 459 kts 271°
2026-05-04 18:45 48.42730 13.61574 33896 ft 458 kts 271°
2026-05-04 18:45 48.43274 13.52016 33901 ft 459 kts 278°
2026-05-04 18:46 48.44901 13.42705 33899 ft 459 kts 284°
2026-05-04 18:46 48.46695 13.33512 33897 ft 459 kts 284°
2026-05-04 18:47 48.48464 13.24277 33902 ft 458 kts 283°
2026-05-04 18:47 48.50205 13.15026 33910 ft 458 kts 283°
2026-05-04 18:48 48.51930 13.05789 33913 ft 458 kts 283°
2026-05-04 18:48 48.53646 12.96541 33899 ft 458 kts 283°
2026-05-04 18:49 48.55348 12.87337 33901 ft 458 kts 283°
2026-05-04 18:49 48.57054 12.78063 33910 ft 458 kts 283°
2026-05-04 18:50 48.58752 12.68782 33906 ft 459 kts 283°
2026-05-04 18:50 48.60449 12.59469 33916 ft 459 kts 282°
2026-05-04 18:51 48.62126 12.50212 33915 ft 459 kts 282°
2026-05-04 18:51 48.63811 12.40864 33919 ft 459 kts 282°
2026-05-04 18:52 48.65482 12.31543 33920 ft 460 kts 282°
2026-05-04 18:52 48.67149 12.22202 33925 ft 460 kts 282°
2026-05-04 18:53 48.68875 12.12883 33921 ft 461 kts 287°
2026-05-04 18:53 48.71619 12.04072 33927 ft 466 kts 298°
2026-05-04 18:54 48.75095 11.95833 33932 ft 467 kts 300°
2026-05-04 18:54 48.78625 11.87564 33938 ft 467 kts 300°
2026-05-04 18:55 48.82122 11.79263 33937 ft 467 kts 300°
2026-05-04 18:55 48.87328 11.66761 33938 ft 467 kts 299°
2026-05-04 18:56 48.90789 11.58405 33927 ft 467 kts 299°
2026-05-04 18:56 48.94244 11.50042 33927 ft 467 kts 299°
2026-05-04 18:57 48.97676 11.41713 33927 ft 467 kts 299°
2026-05-04 18:57 49.01125 11.33313 33927 ft 468 kts 299°
2026-05-04 18:58 49.04575 11.24883 33936 ft 468 kts 299°
2026-05-04 18:58 49.08022 11.16436 33834 ft 471 kts 299°
2026-05-04 18:59 49.09763 11.12156 33182 ft 476 kts 299°
2026-05-04 18:59 49.11501 11.07881 32582 ft 471 kts 299°
2026-05-04 18:59 49.13221 11.03646 31973 ft 467 kts 299°
2026-05-04 18:59 49.14864 10.99594 31396 ft 463 kts 299°
2026-05-04 19:00 49.16548 10.95432 30806 ft 458 kts 299°
2026-05-04 19:00 49.18198 10.91349 30272 ft 454 kts 298°
2026-05-04 19:00 49.19848 10.87258 29649 ft 450 kts 298°
2026-05-04 19:00 49.21482 10.83198 29032 ft 446 kts 298°
2026-05-04 19:01 49.23100 10.79174 28466 ft 441 kts 298°
2026-05-04 19:01 49.24699 10.75192 27906 ft 437 kts 298°
2026-05-04 19:01 49.26280 10.71245 27351 ft 433 kts 298°
2026-05-04 19:01 49.27844 10.67337 26797 ft 429 kts 298°
2026-05-04 19:02 49.29394 10.63456 26281 ft 425 kts 298°
2026-05-04 19:02 49.30935 10.59593 25745 ft 422 kts 298°
2026-05-04 19:02 49.32459 10.55768 25226 ft 419 kts 298°
2026-05-04 19:02 49.33973 10.51963 24708 ft 417 kts 298°
2026-05-04 19:03 49.35478 10.48176 24256 ft 414 kts 298°
2026-05-04 19:03 49.36975 10.44512 24050 ft 410 kts 300°
2026-05-04 19:03 49.38610 10.40869 23971 ft 417 kts 302°
2026-05-04 19:03 49.40302 10.37227 23970 ft 421 kts 302°
2026-05-04 19:04 49.42010 10.33566 23638 ft 420 kts 302°
2026-05-04 19:04 49.43700 10.29916 23065 ft 419 kts 302°
2026-05-04 19:04 49.45374 10.26267 22507 ft 415 kts 302°
2026-05-04 19:04 49.47022 10.22647 22031 ft 410 kts 302°
2026-05-04 19:05 49.48647 10.19061 21526 ft 407 kts 302°
2026-05-04 19:05 49.50260 10.15497 21006 ft 404 kts 302°
2026-05-04 19:05 49.51859 10.11959 20506 ft 401 kts 302°
2026-05-04 19:05 49.53446 10.08445 20011 ft 399 kts 302°
2026-05-04 19:06 49.55002 10.04997 19551 ft 396 kts 302°
2026-05-04 19:06 49.56570 10.01519 19066 ft 393 kts 302°
2026-05-04 19:06 49.58124 9.98066 18599 ft 391 kts 302°
2026-05-04 19:06 49.59666 9.94637 18092 ft 388 kts 302°
2026-05-04 19:07 49.61200 9.91220 17568 ft 386 kts 302°
2026-05-04 19:07 49.62721 9.87829 17085 ft 383 kts 302°
2026-05-04 19:07 49.64226 9.84467 16672 ft 378 kts 302°
2026-05-04 19:07 49.65770 9.81203 16242 ft 378 kts 308°
2026-05-04 19:08 49.67590 9.78250 15838 ft 381 kts 316°
2026-05-04 19:08 49.69595 9.75633 15729 ft 374 kts 318°
2026-05-04 19:08 49.71574 9.73090 15641 ft 366 kts 317°
2026-05-04 19:08 49.73510 9.70571 15251 ft 363 kts 315°
2026-05-04 19:09 49.75259 9.67754 14706 ft 361 kts 308°
2026-05-04 19:09 49.76886 9.64821 14310 ft 357 kts 308°
2026-05-04 19:09 49.78482 9.61922 13950 ft 352 kts 308°
2026-05-04 19:09 49.80042 9.59096 13580 ft 347 kts 308°
2026-05-04 19:10 49.81597 9.56286 13258 ft 341 kts 308°
2026-05-04 19:10 49.83114 9.53554 13156 ft 324 kts 308°
2026-05-04 19:10 49.84544 9.50987 12863 ft 307 kts 308°
2026-05-04 19:10 49.85918 9.48519 12345 ft 299 kts 307°
2026-05-04 19:11 49.87265 9.46093 11720 ft 295 kts 307°
2026-05-04 19:11 49.88603 9.43681 11090 ft 294 kts 307°
2026-05-04 19:11 49.89930 9.41289 10464 ft 291 kts 307°
2026-05-04 19:11 49.91248 9.38911 9862 ft 289 kts 307°
2026-05-04 19:12 49.92552 9.36559 9198 ft 286 kts 307°
2026-05-04 19:12 49.95124 9.31912 7909 ft 282 kts 308°
2026-05-04 19:12 49.96415 9.29576 7410 ft 286 kts 308°
2026-05-04 19:13 49.97684 9.27277 7132 ft 282 kts 308°
2026-05-04 19:13 49.98953 9.24979 6797 ft 279 kts 308°
2026-05-04 19:13 50.00218 9.22686 6397 ft 279 kts 308°
2026-05-04 19:13 50.01481 9.20393 6008 ft 279 kts 309°
2026-05-04 19:14 50.02734 9.18115 5661 ft 276 kts 309°
2026-05-04 19:14 50.03977 9.15858 5290 ft 273 kts 309°
2026-05-04 19:14 50.05205 9.13622 5023 ft 272 kts 309°
2026-05-04 19:14 50.06444 9.11369 5022 ft 275 kts 309°
2026-05-04 19:15 50.07687 9.09100 5006 ft 274 kts 309°
2026-05-04 19:15 50.08919 9.06854 5004 ft 272 kts 309°
2026-05-04 19:15 50.10106 9.04691 4987 ft 267 kts 309°
2026-05-04 19:15 50.11272 9.02560 4974 ft 251 kts 309°
2026-05-04 19:16 50.12377 9.00544 4988 ft 241 kts 309°
2026-05-04 19:16 50.13281 8.98432 4977 ft 226 kts 288°
2026-05-04 19:16 50.13704 8.96179 4995 ft 209 kts 284°
2026-05-04 19:16 50.14071 8.94068 5021 ft 198 kts 284°
2026-05-04 19:17 50.14334 8.92025 4983 ft 191 kts 265°
2026-05-04 19:17 50.13899 8.90194 5017 ft 176 kts 234°
2026-05-04 19:17 50.13295 8.88595 4998 ft 162 kts 242°
2026-05-04 19:17 50.12799 8.87103 4984 ft 151 kts 242°
2026-05-04 19:18 50.12344 8.85589 4932 ft 158 kts 245°
2026-05-04 19:18 50.11918 8.83993 4711 ft 159 kts 247°
2026-05-04 19:18 50.11519 8.82403 4485 ft 156 kts 248°
2026-05-04 19:18 50.11139 8.80841 4269 ft 154 kts 248°
2026-05-04 19:19 50.10763 8.79278 4052 ft 154 kts 249°
2026-05-04 19:19 50.10389 8.77712 3840 ft 154 kts 249°
2026-05-04 19:19 50.10015 8.76146 3608 ft 154 kts 249°
2026-05-04 19:19 50.09644 8.74587 3406 ft 154 kts 249°
2026-05-04 19:20 50.09277 8.73045 3188 ft 153 kts 250°
2026-05-04 19:20 50.08907 8.71496 2964 ft 152 kts 250°
2026-05-04 19:20 50.08538 8.69948 2755 ft 152 kts 250°
2026-05-04 19:20 50.08170 8.68402 2529 ft 152 kts 251°
2026-05-04 19:21 50.07801 8.66855 2323 ft 152 kts 251°
2026-05-04 19:21 50.07433 8.65312 2101 ft 152 kts 251°
2026-05-04 19:21 50.07064 8.63767 1884 ft 152 kts 251°
2026-05-04 19:21 50.06697 8.62230 1668 ft 151 kts 252°
2026-05-04 19:22 50.06335 8.60708 1452 ft 150 kts 251°
2026-05-04 19:22 50.05971 8.59186 1233 ft 149 kts 251°
2026-05-04 19:22 50.05614 8.57686 1006 ft 147 kts 252°
2026-05-04 19:22 50.05260 8.56207 785 ft 145 kts 251°
2026-05-04 19:23 50.04909 8.54742 617 ft 144 kts 251°
2026-05-04 19:23 50.04556 8.53272 402 ft 145 kts 251°
2026-05-04 19:23 50.04225 8.51882 352 ft 122 kts 250°
2026-05-04 19:23 50.03998 8.50931 329 ft 60 kts 250°
2026-05-04 19:24 50.03913 8.50585 326 ft 28 kts 249°
2026-05-04 19:24 50.03803 8.50338 320 ft 24 kts 225°
2026-05-04 19:24 50.03721 8.50227 319 ft 12 kts 219°
2026-05-04 19:24 50.03705 8.50207 321 ft 3 kts 218°
2026-05-04 19:25 50.03666 8.50185 323 ft 9 kts 180°
2026-05-04 19:25 50.03631 8.50286 327 ft 14 kts 78°
2026-05-04 19:25 50.03665 8.50436 327 ft 15 kts 70°
2026-05-04 19:25 50.03702 8.50591 332 ft 16 kts 70°
2026-05-04 19:26 50.03739 8.50744 333 ft 11 kts 69°
2026-05-04 19:26 50.03762 8.50853 335 ft 10 kts 79°
2026-05-04 19:26 50.03754 8.50961 337 ft 10 kts 111°
2026-05-04 19:26 50.03725 8.51059 355 ft 10 kts 116°
2026-05-04 19:27 50.03696 8.51151 349 ft 9 kts 116°
2026-05-04 19:27 50.03666 8.51243 359 ft 11 kts 116°
2026-05-04 19:27 50.03617 8.51395 362 ft 20 kts 116°
2026-05-04 19:27 50.03553 8.51601 363 ft 19 kts 116°
2026-05-04 19:28 50.03513 8.51787 363 ft 18 kts 87°
2026-05-04 19:28 50.03524 8.51969 353 ft 8 kts 83°
2026-05-04 19:28 50.03533 8.52074 357 ft 10 kts 82°
2026-05-04 19:28 50.03544 8.52202 352 ft 13 kts 82°
2026-05-04 19:29 50.03559 8.52336 344 ft 9 kts 73°
2026-05-04 19:29 50.03582 8.52432 354 ft 9 kts 68°
2026-05-04 19:29 50.03595 8.52526 351 ft 10 kts 85°
2026-05-04 19:29 50.03603 8.52658 352 ft 14 kts 81°
2026-05-04 19:30 50.03630 8.52772 351 ft 7 kts 68°
2026-05-04 19:30 50.03623 8.52842 350 ft 8 kts 125°
2026-05-04 19:30 50.03583 8.52935 352 ft 11 kts 96°
2026-05-04 19:30 50.03598 8.53027 351 ft 6 kts 64°
2026-05-04 19:31 50.03627 8.53020 355 ft 4 kts 322°
2026-05-04 19:31 50.03645 8.53003 354 ft 2 kts 333°
2026-05-04 19:31 50.03649 8.53001 355 ft 0 kts 334°
2026-05-04 19:31 50.03663 8.52990 352 ft 3 kts 335°
2026-05-04 19:32 50.03682 8.52979 354 ft 2 kts 340°
2026-05-04 19:32 50.03687 8.52976 353 ft 3 kts 340°
2026-05-04 19:32 50.03692 8.52973 353 ft 0 kts 340°